Location: Unspecified
(0.0000°N, 0.0000°E)
Time: 12:25:35
(UTC+00:00)

N. Korean satellite - Visible Passes

Search period start: 19 June 2018 00:00
Search period end: 29 June 2018 00:00
Orbit: 459 x 511 km, 97.2° (Epoch: 18 June)

Date Brightness Start Highest point End Pass type
(mag) Time Alt. Az. Time Alt. Az. Time Alt. Az.
19 Jun 9.9 05:16:49 10° E 05:17:55 11° E 05:19:01 10° ESE visible
19 Jun 8.6 18:36:01 10° SSW 18:39:02 28° W 18:42:04 10° NW visible
22 Jun 9.1 05:36:02 10° NE 05:39:02 24° E 05:42:01 10° SSE visible
22 Jun 9.6 18:58:27 10° SW 19:00:08 13° W 19:01:48 10° WNW visible
23 Jun 8.4 18:32:56 10° SSW 18:36:05 32° W 18:39:15 10° NW visible
26 Jun 9.3 05:33:15 10° NE 05:36:06 21° E 05:38:54 10° SSE visible
26 Jun 9.5 18:55:09 10° SW 18:57:09 15° W 18:59:11 10° WNW visible
27 Jun 8.2 18:29:51 10° SSW 18:33:06 36° W 18:36:23 10° NNW visible
